RH
10 10 10 10 10 9 8 8 8 7 6 5 5 4 3 3 2 2 2 2 2 3 3 4 5 6 7 9 11 13 15 16 16 16 15 15 14 13 12 11 9 8 6 5 4 3 3 3 3 3 3 3 3 3 3 3 3 3 3 3 3 3 3 4 5 6 6 7 8 9 10 10 10 11 11 11 11 10 10 10 10 10 10 10 9 9
10 10 10 10 9 8 8 7 6 6 5 4 4 3 2 2 2 2 2 3 4 4 5 6 8 10 13 16 18 20 22 22 22 21 20 20 19 18 17 16 14 12 10 8 7 6 5 4 4 4 4 4 4 4 4 3 3 3 3 3 3 4 4 4 5 6 6 7 8 8 9 10 10 11 12 12 12 12 12 12 12 12 12 12 11 11
10 10 10 10 8 8 7 6 5 4 4 3 2 2 2 2 2 3 4 4 5 6 8 11 14 18 21 24 26 27 27 27 26 26 26 25 25 24 23 22 20 18 16 14 12 11 10 8 7 6 5 4 4 4 4 4 4 4 4 4 4 4 4 4 5 5 6 6 7 8 8 10 10 11 12 13 13 14 14 14 14 14 14 14 14 14
10 10 9 8 8 6 6 5 4 3 3 2 2 2 2 3 4 4 5 6 8 10 14 19 23 26 29 30 31 32 32 31 31 31 31 31 31 30 30 28 26 25 24 22 21 20 18 16 14 12 10 8 7 6 5 5 5 5 5 4 4 4 4 4 5 5 5 6 6 7 8 9 10 12 13 14 14 14 15 15 15 15 15 14 14 14
10 9 8 7 6 5 4 4 3 2 2 2 2 3 3 4 5 6 7 9 13 18 23 28 32 34 35 35 35 35 34 34 35 35 36 36 36 36 35 34 32 32 31 31 31 30 29 28 26 24 22 19 16 13 10 8 7 6 6 6 5 5 5 5 5 5 6 6 6 7 8 10 10 12 13 14 14 14 15 14 14 14 14 14 13 13
9 8 7 6 5 4 3 3 2 2 2 2 3 4 4 5 6 8 10 15 20 26 32 36 38 39 39 38 38 37 37 37 38 38 39 40 40 40 39 38 38 38 38 39 40 40 40 39 39 38 37 35 32 30 26 21 17 14 10 8 7 6 6 6 6 6 6 6 7 8 8 10 10 12 12 12 13 13 13 13 13 13 13 14 14 15
8 6 6 4 4 3 2 2 2 2 3 4 4 5 6 6 8 12 16 23 30 35 39 40 41 42 41 40 40 39 38 39 40 40 42 42 42 42 42 42 42 43 44 45 46 46 47 47 48 48 48 49 48 48 46 43 39 34 30 26 22 18 16 14 12 11 10 10 10 10 11 11 12 12 13 14 14 14 15 16 16 17 18 20 21 23
6 5 4 3 3 2 2 2 3 4 4 5 5 6 7 9 13 18 25 32 38 42 43 43 43 43 43 42 41 40 40 40 41 42 43 44 44 44 44 44 46 47 48 49 50 50 51 51 52 53 54 55 57 58 58 58 58 56 54 51 48 45 42 38 35 32 30 28 27 26 25 25 25 25 25 26 26 26 27 28 29 30 31 32 34 34
5 4 3 2 2 2 2 3 4 4 5 6 6 7 9 13 18 26 33 39 43 46 46 45 45 44 44 43 42 42 40 41 42 43 44 45 45 46 46 47 48 49 50 51 52 52 52 53 53 54 56 57 58 60 60 62 63 64 64 64 64 63 62 61 60 58 56 55 54 52 51 50 50 49 49 48 48 47 47 46 46 46 46 45 45 45
4 3 2 2 2 3 4 4 5 5 6 6 8 10 14 20 26 32 38 43 46 48 48 48 47 46 45 44 43 42 42 42 42 44 45 46 46 46 47 48 50 51 52 52 53 53 52 52 53 53 54 56 56 58 58 60 61 62 63 64 64 64 64 64 64 64 64 64 64 64 64 63 63 63 62 62 61 60 59 58 57 56 54 53 52 52
3 2 2 3 3 4 5 5 6 6 6 8 10 15 22 29 35 39 42 45 47 49 50 50 49 47 46 44 43 42 41 42 43 44 46 48 48 49 50 51 52 53 53 53 53 53 52 52 52 52 53 53 54 54 55 56 57 58 60 61 62 62 62 61 60 60 58 58 57 56 56 55 55 55 55 55 55 55 55 54 54 54 53 52 52 51
2 3 3 4 4 5 5 6 6 7 8 11 16 22 30 38 42 45 46 47 48 49 50 50 50 49 47 44 42 41 40 41 42 45 48 50 51 52 52 54 54 55 55 54 54 54 53 52 52 52 52 52 52 52 52 53 54 56 58 60 60 61 62 60 58 56 54 52 50 48 45 43 42 40 39 38 38 38 39 40 40 41 42 42 43 44
3 3 4 4 5 6 6 6 6 8 11 17 23 30 38 43 46 48 48 49 49 50 50 50 51 50 48 45 42 39 38 39 42 45 49 51 53 54 55 56 58 58 58 57 57 56 55 54 54 54 55 54 54 53 52 52 53 54 56 58 60 62 62 60 58 54 51 48 45 42 40 36 34 31 28 27 25 24 24 24 25 26 28 29 30 32
4 4 5 5 6 6 6 7 8 12 17 24 32 38 44 47 49 49 50 50 50 50 50 51 51 51 50 46 42 38 36 38 41 45 50 54 56 57 57 58 60 61 61 60 60 60 59 58 58 58 58 57 56 55 54 54 54 55 56 58 61 62 62 59 56 52 48 45 42 40 37 34 32 29 26 24 22 20 18 17 16 16 17 18 19 20
4 5 6 6 6 6 7 9 13 18 25 32 39 44 48 50 50 50 50 51 51 51 51 51 52 52 52 48 43 38 36 37 40 45 50 56 59 60 59 60 62 64 65 64 63 62 61 60 60 60 59 58 58 56 56 55 56 56 58 60 62 63 62 58 54 50 47 44 42 39 36 33 30 28 25 23 21 19 18 16 14 13 12 12 12 12
6 6 6 6 6 7 9 14 19 26 33 40 44 48 50 51 52 52 52 52 52 51 51 50 51 52 54 52 47 42 38 38 41 45 51 57 62 63 62 62 64 66 68 68 66 64 62 61 60 60 58 58 57 56 56 56 56 57 58 61 63 64 62 58 54 50 46 44 41 38 34 30 26 23 20 18 16 16 14 13 12 11 10 9 8 8
6 6 6 6 7 10 14 20 28 34 40 44 48 50 52 53 53 53 53 52 52 51 50 49 50 50 52 53 51 47 42 42 43 47 53 60 64 66 65 65 66 68 70 69 68 65 63 62 60 60 58 58 57 56 55 56 56 57 58 61 63 63 61 57 52 49 46 43 40 35 30 26 23 20 18 18 16 15 14 14 13 12 11 10 10 8
6 6 6 7 10 14 21 28 35 41 45 48 50 52 54 54 54 54 54 52 52 50 50 48 48 49 50 52 52 50 47 46 48 51 56 63 68 70 68 68 68 70 70 69 68 66 64 63 62 62 60 59 58 56 55 55 56 57 58 60 61 60 58 54 50 48 45 42 37 33 30 28 28 28 28 27 26 25 24 23 22 21 20 18 18 16
6 6 7 10 15 21 29 36 42 45 48 50 52 53 55 56 56 55 54 53 52 50 50 49 48 48 49 51 52 51 50 50 52 55 60 65 70 72 70 70 70 71 71 70 68 66 66 65 65 64 64 62 60 58 56 56 56 57 58 58 58 56 54 51 49 46 43 39 37 36 36 39 41 43 44 43 42 42 40 39 38 36 34 33 31 30
6 8 11 16 22 29 36 42 46 48 50 51 53 54 56 57 57 56 55 54 53 52 50 50 50 50 50 52 52 53 52 53 55 58 61 66 70 73 72 71 71 72 72 71 69 68 67 67 67 66 66 64 61 59 58 58 57 57 56 56 54 52 50 49 48 45 42 40 42 44 48 53 56 58 58 58 58 57 56 55 54 52 50 48 46 44
8 12 18 25 31 36 42 46 48 50 51 53 54 56 56 57 57 56 56 55 54 54 53 53 53 53 53 54 54 55 54 54 56 58 61 66 70 73 72 71 71 72 73 72 71 70 70 70 69 68 66 64 62 60 59 58 58 56 54 53 51 50 50 48 46 44 42 44 49 54 60 63 65 66 65 65 64 64 64 64 63 62 61 59 57 55
13 20 27 34 39 42 45 48 50 52 54 55 56 56 57 56 56 56 56 56 56 56 56 57 57 57 57 57 58 57 56 56 56 57 60 63 68 71 72 71 70 71 72 72 72 72 72 71 70 68 66 65 63 62 61 59 57 55 52 51 50 49 49 48 46 44 45 50 55 60 65 66 67 66 65 64 64 64 64 65 64 64 63 62 60 59
22 29 36 42 44 47 48 50 51 53 55 56 57 57 57 56 56 56 56 56 57 58 58 60 60 61 61 60 60 59 58 56 56 56 58 62 66 69 70 69 68 69 71 72 72 72 71 70 69 68 67 66 65 64 62 60 57 54 52 51 50 49 48 46 46 46 48 54 59 63 66 66 65 64 63 62 63 63 63 63 63 62 60 59 58 56
31 38 43 46 48 49 50 51 52 54 56 57 57 57 57 56 56 56 56 57 58 58 60 61 62 62 63 62 62 60 58 56 56 57 59 62 66 69 70 68 68 68 71 73 73 71 70 69 68 68 68 68 67 66 64 60 58 55 53 51 50 49 48 47 48 49 53 58 62 65 66 65 64 63 62 63 64 64 64 62 60 58 57 55 54 53
39 44 48 49 50 50 50 52 54 55 56 57 57 57 57 57 58 58 58 58 58 60 60 61 62 62 63 63 63 62 60 58 58 59 61 64 68 70 70 68 68 69 72 74 72 70 68 68 68 68 69 69 69 68 66 62 60 57 55 53 52 50 50 51 53 56 59 63 65 66 66 65 65 65 66 66 65 64 64 62 60 58 56 54 53 52
46 49 50 50 50 50 51 53 54 56 56 56 56 56 56 57 58 60 60 60 60 60 61 61 62 63 64 65 66 65 64 62 62 62 65 66 69 70 70 68 68 70 72 73 71 68 66 66 67 68 68 70 70 70 68 65 62 60 58 57 56 55 56 58 60 62 64 66 67 68 68 69 68 68 67 66 65 64 62 61 59 58 56 55 54 53
51 52 52 51 51 52 53 54 56 57 57 56 56 56 56 57 58 60 61 61 61 61 61 62 62 63 65 67 68 68 67 65 64 66 68 69 70 71 70 68 68 70 72 72 69 66 65 65 65 66 66 68 71 72 70 68 65 63 62 61 61 61 62 64 65 66 67 68 70 71 72 71 70 68 66 64 62 60 60 59 58 58 58 57 56 55
55 54 53 52 52 53 55 56 57 58 58 57 57 57 57 58 59 60 60 60 60 61 61 61 62 63 64 67 69 70 69 67 66 67 69 70 72 71 70 68 68 69 71 72 70 66 63 62 62 61 62 65 70 73 73 71 68 67 66 66 66 67 68 68 68 68 68 69 70 70 70 68 66 62 60 58 57 56 56 58 58 58 58 58 56 56
58 56 55 54 54 55 56 58 58 58 58 58 58 58 59 60 60 60 60 60 59 59 58 60 60 61 62 65 68 70 71 69 68 68 70 71 72 72 70 69 68 68 70 71 69 66 61 58 56 56 56 60 66 72 74 73 72 71 70 70 71 71 72 71 70 70 68 68 66 65 63 60 57 55 55 56 57 58 59 60 59 58 58 57 55 54
60 58 57 57 57 58 58 60 60 60 60 60 60 60 61 61 61 60 59 58 57 56 55 56 58 60 60 62 65 68 71 71 71 70 71 72 72 72 70 69 67 66 65 66 67 66 62 56 52 50 52 57 63 69 74 74 74 74 74 74 74 74 74 73 71 68 66 64 61 58 55 53 54 56 60 62 64 64 64 64 62 61 59 57 56 54
62 61 60 60 60 60 61 62 62 62 62 62 63 63 63 62 61 60 58 56 54 52 52 53 55 57 60 61 64 66 70 71 72 72 72 72 72 72 70 68 65 62 58 58 61 63 63 58 52 49 50 56 62 67 71 72 73 74 74 73 73 72 70 68 65 62 60 57 55 53 52 54 58 63 67 68 69 68 68 66 65 64 62 59 56 53
63 62 62 62 63 63 63 64 64 64 64 64 64 63 62 61 59 57 54 52 50 48 47 48 50 54 58 60 64 66 69 71 72 72 72 72 72 71 69 65 61 57 53 51 53 56 58 58 54 50 51 57 62 65 66 66 67 67 66 66 65 64 62 60 58 56 55 54 54 55 57 60 64 68 70 71 70 69 68 67 66 64 62 60 58 56
64 63 64 64 64 64 64 64 64 64 64 63 62 60 58 56 54 51 48 46 44 42 41 42 45 49 54 58 63 67 70 72 72 72 71 71 70 69 66 60 56 52 50 49 49 49 50 50 50 51 53 56 58 60 59 58 58 58 58 58 58 58 57 56 56 56 57 58 60 62 64 67 70 72 72 72 69 66 62 62 62 64 64 63 63 63
64 64 64 64 64 64 64 63 62 61 60 58 56 53 50 48 45 42 40 38 36 35 34 35 39 43 49 55 61 67 72 74 74 72 70 70 69 66 61 54 50 49 49 49 48 46 44 44 46 50 54 56 57 56 56 56 57 58 58 59 60 60 60 60 62 63 64 65 66 68 70 72 73 74 74 71 66 61 56 56 58 62 64 64 64 65
65 64 64 64 63 62 61 59 57 54 52 50 46 43 40 37 34 32 31 29 28 27 26 28 32 37 44 51 58 66 72 75 75 73 71 70 67 62 55 48 45 44 46 47 46 45 43 43 46 50 54 58 59 60 60 61 62 63 64 64 64 65 66 66 68 68 69 70 71 72 74 74 74 74 73 69 64 58 53 54 56 59 62 62 62 64
65 64 62 60 58 56 54 51 48 45 42 38 36 32 30 27 24 23 22 21 20 20 20 21 24 30 39 48 57 65 72 76 76 74 72 70 66 58 50 44 40 40 42 43 43 43 44 46 49 52 56 59 62 65 66 66 67 67 66 66 66 66 67 68 69 71 72 73 74 75 75 74 74 72 70 65 61 56 52 52 54 57 60 62 64 65
63 60 58 54 51 47 44 40 36 33 30 27 25 23 20 18 16 16 14 14 14 14 14 15 18 24 32 43 54 64 73 76 76 74 73 70 63 54 44 40 37 37 38 39 41 43 46 49 53 56 59 62 65 68 71 71 71 70 69 68 67 66 67 68 70 71 73 74 75 76 75 74 74 72 68 64 58 52 48 48 51 55 60 64 68 70
58 54 50 45 40 36 32 28 25 22 20 18 16 15 14 13 12 11 10 10 10 10 10 11 13 18 26 39 51 63 72 75 76 74 73 69 61 51 40 38 36 36 37 39 41 44 48 52 56 59 62 65 66 68 71 72 73 73 73 71 70 68 68 70 71 73 74 75 76 76 76 75 74 72 67 59 50 42 39 42 47 54 61 67 72 74
50 45 39 34 30 26 22 19 17 15 14 13 12 11 10 10 10 10 10 9 9 9 8 8 10 14 22 34 48 61 72 76 76 75 74 68 59 48 39 36 36 37 38 40 43 46 49 52 55 58 61 64 66 67 66 68 70 72 74 74 73 72 72 73 74 75 76 76 76 76 76 75 73 68 58 45 36 31 31 37 45 53 60 65 68 70
39 34 28 24 20 18 15 14 12 12 11 10 10 10 10 10 10 10 10 9 9 8 8 7 8 11 18 31 46 60 72 76 77 76 74 68 58 47 38 36 36 38 40 42 45 47 50 52 53 55 57 60 63 64 64 64 65 68 72 74 74 74 74 75 76 76 76 76 76 75 75 73 67 58 45 36 32 32 35 42 48 55 61 64 66 66
28 24 20 18 16 14 13 13 12 12 12 11 11 10 10 10 10 10 10 10 9 8 8 6 6 9 15 29 44 59 72 76 77 76 74 68 57 46 38 37 38 39 42 44 46 48 49 50 51 52 54 57 60 63 65 66 66 68 71 74 75 75 75 76 76 76 76 76 76 75 74 68 60 53 48 46 46 48 51 56 60 64 67 68 67 64
21 18 16 16 15 15 14 14 14 14 13 13 12 12 11 11 11 10 10 10 10 9 8 6 6 8 14 28 44 59 71 74 76 76 74 67 57 46 39 38 39 41 43 45 46 47 48 48 48 49 50 53 57 62 66 69 71 72 73 75 76 76 75 76 76 76 76 76 76 74 70 66 64 63 63 64 66 67 68 69 70 71 71 69 65 59
18 18 17 17 18 18 18 17 16 16 15 14 13 13 12 12 11 11 11 11 11 10 8 6 6 8 15 30 46 62 72 74 76 76 74 66 56 46 39 39 41 43 45 46 46 47 47 46 46 46 46 50 54 59 65 71 74 75 76 76 76 76 75 74 74 75 76 76 74 71 66 66 68 70 71 72 72 73 74 74 72 70 66 63 58 52
20 21 21 21 21 21 20 20 18 18 16 16 15 14 13 12 12 12 12 12 11 10 9 7 6 8 16 32 49 65 75 74 75 74 73 66 55 45 40 40 42 44 46 46 46 46 46 45 44 44 44 48 52 57 63 69 73 76 76 76 76 76 74 70 70 73 77 76 72 68 66 69 71 72 73 74 73 73 72 69 66 64 62 59 54 46
25 26 25 25 24 23 22 21 20 19 18 17 16 15 14 14 13 12 12 12 12 10 9 7 7 10 18 34 52 68 76 75 75 74 72 64 54 46 41 42 43 45 46 45 45 44 45 44 44 44 46 49 54 58 63 68 72 75 76 76 76 74 71 68 70 74 76 73 68 65 68 72 74 74 74 73 71 69 67 65 64 63 62 57 50 42
30 29 28 27 26 25 24 23 22 21 20 19 18 17 16 16 14 14 13 12 12 11 10 8 8 11 20 37 56 70 77 76 76 74 71 63 54 46 42 42 44 45 46 45 44 43 43 44 45 48 50 55 60 64 68 71 74 75 76 76 76 74 71 68 71 74 76 70 65 63 68 73 74 74 72 69 68 67 66 66 66 64 60 54 48 40
33 32 31 29 28 27 26 25 24 24 24 23 21 20 18 18 16 15 14 14 13 12 10 8 9 13 22 40 58 72 78 77 76 74 71 62 52 45 42 43 44 45 45 44 44 44 44 44 47 51 56 61 66 71 74 75 75 76 76 76 76 75 73 71 73 75 75 68 64 63 68 72 72 70 66 64 65 67 68 68 66 62 57 52 47 41
35 34 32 31 30 29 28 27 27 27 26 26 24 23 21 20 19 18 16 15 14 12 11 10 12 16 24 42 60 73 77 77 76 75 72 63 53 45 43 44 45 45 45 45 44 44 45 48 51 56 61 66 71 74 76 76 76 76 76 76 76 74 73 72 74 76 74 67 65 66 71 72 71 67 62 62 64 68 69 68 65 61 56 52 48 42
35 35 34 33 32 30 29 29 28 28 28 28 27 26 25 24 22 21 19 17 15 14 13 13 15 20 29 46 62 74 77 77 76 76 73 65 56 48 44 44 46 46 47 46 46 46 48 51 56 60 65 69 73 76 76 76 76 76 76 76 76 74 72 73 75 74 70 66 67 70 74 74 70 64 60 62 65 69 69 67 64 61 58 55 51 46
36 36 36 34 33 32 30 29 29 29 29 29 29 28 28 27 26 24 23 20 18 16 15 15 17 23 33 49 64 74 77 77 76 76 74 68 59 51 47 47 47 48 49 49 48 49 51 54 58 62 66 69 73 76 76 76 76 76 76 76 76 74 74 75 76 74 66 66 69 73 76 74 68 63 60 63 66 69 69 66 65 64 62 60 57 52
39 38 38 36 34 31 29 28 28 28 29 29 29 30 30 30 30 29 27 25 23 21 18 18 19 25 35 51 66 75 77 77 76 76 74 69 62 54 50 49 50 50 52 52 52 52 54 58 61 64 66 68 71 74 76 76 76 76 76 76 76 75 75 76 76 72 64 66 71 74 76 72 66 62 62 65 68 70 69 68 68 68 66 64 63 60
Wind_Speed
97 99 101 104 106 108 110 112 113 113 114 114 114 113 111 108 106 103 100 96 92 90 87 85 83 81 78 76 75 73 72 71 70 69 68 67 65 64 62 61 60 58 57 55 54 53 52 51 50 49 49 48 48 49 49 51 52 54 56 59 62 64 67 69 70 71 72 72 72 72 72 72 72 72 72 72 73 73 73 73 73 73 73 74 74 74
100 103 105 107 109 110 112 113 114 113 112 111 110 108 105 102 98 95 91 88 84 81 79 76 74 72 70 69 68 67 66 66 65 64 63 62 60 59 57 56 54 53 51 50 49 47 46 45 44 43 43 42 42 42 42 43 44 46 48 50 53 56 59 61 63 65 66 67 68 69 69 69 70 70 70 70 70 70 70 70 71 71 71 71 71 71
104 106 108 110 111 112 112 113 113 112 110 107 105 102 98 94 90 86 83 79 76 73 71 68 67 65 64 63 62 62 61 61 60 59 58 57 56 54 53 51 50 48 46 45 44 43 42 41 40 39 38 38 37 37 37 37 37 38 40 42 44 47 50 53 55 58 60 61 63 64 65 66 66 67 67 67 68 68 68 68 69 69 69 69 69 69
107 109 111 112 113 113 112 111 109 108 105 102 98 94 90 86 82 78 74 71 68 66 64 62 61 60 59 59 58 58 57 57 56 56 54 53 52 50 49 47 46 44 42 41 40 39 38 37 36 36 35 34 34 33 33 33 33 33 34 35 37 39 42 44 47 50 53 55 57 59 60 61 62 63 64 65 65 66 66 67 67 67 67 68 68 68
110 111 112 112 112 111 110 108 105 102 99 95 90 86 82 78 74 70 67 64 61 59 58 57 56 56 56 56 55 55 55 54 53 52 51 50 48 47 46 44 43 41 40 39 38 37 36 35 35 34 33 32 31 31 30 30 30 30 30 31 32 33 35 37 40 43 46 48 51 53 55 57 58 59 61 62 62 63 64 65 65 65 66 66 66 67
112 113 112 111 110 108 106 103 99 95 91 87 83 78 73 70 66 63 60 58 56 54 54 54 54 54 53 53 53 53 52 51 50 49 48 47 46 45 43 42 41 40 38 38 37 36 36 35 34 33 32 31 30 29 29 28 27 27 27 28 28 29 31 33 35 37 40 42 45 48 50 52 54 56 57 58 59 60 61 62 62 62 63 63 63 63
113 113 111 109 107 104 101 97 92 87 83 80 76 72 67 63 59 56 54 53 52 51 52 52 52 51 51 51 51 51 50 49 47 46 45 44 44 43 42 41 40 39 38 37 37 37 36 35 34 34 32 31 30 29 28 27 26 26 26 26 26 27 28 29 31 33 35 38 40 43 45 47 49 51 52 54 55 56 56 57 57 58 58 58 58 58
112 111 109 105 102 98 95 90 85 80 76 72 68 65 60 57 53 51 50 49 49 50 50 50 50 49 49 49 49 49 48 46 45 44 43 42 42 41 41 40 39 38 38 37 37 37 37 36 35 34 33 32 31 30 29 28 27 26 25 25 25 25 26 27 28 29 31 33 36 38 40 42 44 46 47 48 49 50 51 52 52 53 53 53 54 54
109 106 104 100 96 90 86 83 80 75 70 65 61 58 54 51 49 48 47 47 48 49 49 49 48 48 47 48 48 48 46 45 43 42 41 40 40 40 39 39 38 37 37 37 37 37 37 36 36 35 34 33 32 31 30 29 28 27 26 25 25 25 25 26 27 28 29 31 33 35 37 38 40 42 43 45 46 47 48 49 49 50 50 51 52 52
105 101 97 94 90 84 79 75 73 69 64 59 55 52 49 47 46 45 45 46 47 47 47 47 46 46 46 46 46 46 45 43 41 40 39 39 39 39 39 38 37 37 37 37 37 37 37 36 36 35 34 33 32 31 30 29 28 27 26 26 25 25 25 26 27 28 29 30 32 34 35 37 39 41 42 44 45 46 47 48 48 49 50 50 51 52
100 96 91 87 83 79 74 70 66 62 58 54 50 47 46 45 45 45 45 45 45 45 45 45 44 44 44 44 44 44 43 41 39 37 37 37 38 38 38 37 36 36 36 37 37 37 37 37 36 35 35 34 33 32 30 29 28 27 26 25 25 25 25 26 26 27 29 30 31 33 35 37 38 40 41 43 44 46 47 48 48 49 50 50 51 52
93 89 85 80 76 73 69 65 60 56 52 48 46 44 44 44 45 45 45 45 44 44 43 42 41 42 42 43 43 42 40 38 36 34 34 35 36 37 37 37 36 36 36 37 37 38 38 37 37 36 36 35 34 33 31 30 28 27 26 25 25 25 25 26 26 27 28 29 31 32 33 35 37 38 40 41 42 44 45 46 47 48 49 50 50 51
87 83 79 75 71 67 63 59 55 51 47 45 43 43 43 44 45 45 45 44 43 42 41 40 39 39 40 41 41 40 38 36 33 32 31 33 34 36 37 36 35 35 36 37 37 38 38 38 38 37 37 36 36 34 33 32 30 29 28 27 26 26 26 27 27 28 28 29 30 31 32 33 34 35 36 37 39 40 42 43 44 45 47 48 49 50
81 77 74 70 66 62 58 53 49 46 43 42 42 42 43 44 44 44 43 42 41 40 39 38 36 36 37 39 40 39 36 33 31 29 29 31 33 35 36 36 35 35 35 36 37 38 38 38 38 38 38 37 37 36 35 34 32 31 30 29 28 28 28 28 29 29 29 29 30 30 30 31 32 32 33 34 36 37 38 39 40 42 43 45 46 47
76 72 68 65 61 56 52 48 45 42 41 41 41 42 43 43 43 42 41 41 39 38 37 35 34 33 34 37 38 37 35 32 29 28 28 29 32 35 37 36 35 35 35 36 37 38 38 38 39 39 38 38 38 37 36 35 34 33 31 30 29 29 29 29 30 30 30 30 30 30 30 30 30 31 31 32 33 34 35 36 37 38 39 41 42 44
71 67 63 59 55 51 47 44 42 41 40 41 41 42 42 42 41 40 40 39 38 37 35 34 32 30 31 33 36 37 35 32 29 28 28 29 31 34 36 37 36 35 35 36 37 38 38 39 39 39 39 39 39 38 37 36 34 33 31 30 29 29 29 29 30 30 31 31 30 30 29 29 29 29 29 29 30 30 31 31 32 33 35 36 37 39
66 62 58 54 49 45 43 41 40 39 40 40 41 41 41 40 39 39 38 37 36 35 34 32 31 29 28 30 33 35 35 33 31 29 29 29 30 33 36 36 36 35 35 36 37 38 39 40 40 40 40 40 39 38 37 35 34 32 30 28 27 27 28 29 29 30 30 30 29 29 28 27 26 25 25 25 25 25 25 26 26 27 28 29 31 32
61 57 53 48 44 41 39 39 39 39 40 40 40 40 39 38 37 37 37 36 35 34 32 31 30 29 29 29 31 34 35 35 33 31 30 29 29 32 34 35 35 35 35 36 38 39 40 40 41 41 41 40 39 38 36 34 32 30 28 26 25 25 26 27 28 29 28 28 27 25 24 23 22 20 20 19 19 19 19 20 20 21 22 23 24 25
55 51 47 44 41 38 37 37 38 39 40 39 39 38 36 36 35 35 35 34 34 32 31 29 29 29 29 30 32 33 35 35 34 32 30 28 28 30 33 34 35 35 35 37 38 39 40 40 40 41 40 39 38 37 35 32 30 27 25 23 22 23 25 26 27 27 26 25 23 22 20 19 17 17 16 16 16 16 16 16 17 17 18 19 20 21
50 46 42 40 38 37 36 37 38 39 39 39 38 36 35 34 33 33 33 33 32 31 29 28 28 29 29 31 32 34 36 36 35 32 29 27 27 29 31 33 34 35 35 37 38 39 40 40 39 39 39 38 36 35 32 30 27 24 22 21 21 22 24 25 25 25 23 21 20 18 17 16 15 15 15 15 16 16 16 17 17 17 18 19 19 20
45 41 39 37 37 36 36 37 38 38 38 38 36 35 33 32 32 32 31 31 30 29 28 28 28 29 30 31 32 34 36 36 34 31 28 25 25 27 31 33 34 35 35 37 38 38 38 38 38 37 37 36 34 32 29 27 24 21 19 19 20 21 23 24 23 22 20 19 17 16 15 15 14 15 16 16 17 18 18 19 19 20 21 21 22 23
41 38 37 36 36 36 37 37 38 38 37 36 35 33 32 31 31 30 30 29 29 28 28 27 28 29 30 31 32 34 35 35 33 30 26 24 24 27 30 33 34 35 35 36 36 37 37 36 36 35 34 33 31 29 26 23 20 18 17 18 20 21 22 22 21 20 19 18 17 16 15 15 16 16 17 18 19 20 21 21 22 23 24 25 25 26
38 36 36 36 36 37 37 37 37 36 35 34 33 32 31 31 30 30 29 29 28 27 27 26 27 27 29 30 31 33 34 33 32 29 26 24 24 27 31 33 34 34 34 35 35 35 35 35 35 34 33 31 29 26 24 21 18 17 17 18 20 21 21 21 20 19 18 17 17 16 16 17 17 18 20 21 22 23 23 24 25 26 27 27 28 29
36 35 36 36 37 37 37 37 36 35 34 33 32 31 31 30 30 30 29 29 28 27 26 26 25 26 27 28 29 30 31 31 30 27 25 25 26 28 32 34 34 34 33 34 34 35 35 34 34 33 31 29 27 24 21 19 17 17 18 19 21 21 21 19 18 18 17 17 17 17 18 18 20 21 22 23 24 25 25 26 27 27 28 29 30 30
35 35 36 37 37 37 37 36 35 34 33 32 31 30 30 29 29 29 29 29 28 27 26 26 25 25 25 25 27 28 29 29 28 27 26 26 27 29 32 34 34 33 32 33 34 34 34 34 33 32 30 28 25 23 20 18 17 17 18 20 21 21 19 18 17 16 16 17 18 18 20 21 22 23 24 24 25 26 26 27 27 28 29 29 30 30
35 36 37 37 37 37 36 35 34 33 33 32 31 31 30 29 29 29 29 29 29 28 27 26 25 24 24 25 25 27 28 28 28 27 27 27 28 30 32 33 33 32 31 32 33 34 34 33 32 31 29 27 25 22 20 19 18 18 19 20 20 20 18 17 16 16 17 18 19 21 22 23 23 24 25 26 27 27 27 28 28 28 28 28 29 29
36 37 37 37 37 36 35 34 33 33 32 32 32 31 31 30 29 29 29 30 29 29 28 27 25 24 24 24 25 26 28 28 28 28 28 28 29 30 32 33 32 31 31 32 33 34 33 32 31 30 29 27 24 22 20 19 19 19 19 20 20 19 18 17 17 18 19 20 22 23 24 25 26 26 27 27 27 27 27 27 28 28 28 28 27 27
37 37 37 37 36 35 34 33 32 32 32 32 32 32 32 31 31 31 31 30 30 30 29 28 27 26 25 25 25 26 28 29 28 28 28 29 29 30 31 32 32 31 31 32 33 34 33 32 31 29 28 26 24 22 20 20 20 20 20 20 20 19 19 19 20 21 23 24 25 25 26 26 27 27 26 25 25 24 24 25 25 25 26 26 26 26
37 37 37 36 35 34 33 32 32 32 32 33 33 33 33 33 33 33 32 32 31 31 30 29 28 27 27 25 25 26 27 28 29 28 28 28 29 30 31 32 32 32 31 31 32 32 32 31 30 29 27 25 23 21 20 20 21 21 22 22 22 22 22 22 23 25 26 26 27 26 26 26 25 23 22 21 21 21 21 21 22 22 23 23 23 24
36 36 35 35 34 33 32 32 32 32 33 33 34 34 34 34 34 34 33 33 32 32 30 29 29 28 27 26 25 25 26 27 28 28 28 28 28 29 31 32 32 32 31 30 29 30 30 31 30 28 27 24 22 21 20 20 21 21 22 23 23 24 24 25 26 27 27 27 26 25 23 22 21 20 20 20 21 21 22 21 21 20 20 20 20 21
35 34 34 33 33 32 32 32 32 33 33 34 34 35 35 35 35 35 34 34 33 32 31 30 29 28 28 27 26 25 25 26 27 27 28 28 28 29 30 31 32 32 31 29 27 27 28 29 29 28 26 24 22 20 20 20 20 21 21 22 23 24 25 25 26 25 25 24 23 21 20 19 19 20 21 23 23 24 23 23 21 20 18 18 17 17
33 33 32 32 32 32 32 32 33 33 34 34 35 35 35 35 35 35 35 35 34 33 32 30 29 28 27 27 27 26 25 25 26 27 27 27 28 29 30 31 31 30 29 28 26 25 25 26 27 26 25 23 21 20 19 19 19 20 20 21 21 22 22 23 22 22 21 21 20 20 20 21 22 23 24 25 25 25 23 22 20 18 16 15 14 14
32 32 31 31 31 32 32 33 33 34 34 35 35 35 36 36 36 36 36 35 34 34 32 31 30 28 27 26 26 26 25 26 26 27 27 27 28 29 29 29 29 28 27 26 25 25 24 24 24 23 22 21 20 19 18 17 17 18 18 18 19 19 19 20 20 20 20 20 21 22 23 24 25 26 26 27 26 25 23 20 18 16 15 15 15 16
31 31 31 31 31 32 33 33 34 35 35 36 36 36 36 36 36 36 36 35 35 34 33 32 31 29 27 26 25 24 24 25 26 27 27 28 28 28 28 28 26 25 24 23 23 23 23 22 21 20 20 20 19 19 18 18 18 18 18 18 18 18 19 19 19 20 21 21 22 23 24 25 26 27 28 28 28 26 24 21 18 17 17 17 18 20
31 31 31 32 32 33 33 34 35 35 36 36 36 36 36 36 36 36 36 35 35 34 33 32 31 30 28 27 25 23 23 24 25 26 27 27 28 28 27 25 24 22 21 20 20 20 20 20 19 18 18 18 19 19 20 20 21 21 21 21 21 21 21 21 22 22 22 23 24 24 25 26 27 28 29 29 29 28 25 23 21 19 19 20 21 23
31 31 32 32 33 33 34 34 35 35 36 36 36 36 36 36 36 36 35 35 35 34 33 32 31 30 29 27 26 24 22 23 23 25 26 27 27 26 25 23 21 19 18 17 17 17 18 18 18 18 18 18 19 19 21 22 23 24 24 24 25 25 25 25 25 25 25 25 25 26 27 27 28 29 30 31 31 29 27 25 23 22 22 23 24 26
31 32 33 33 34 34 34 34 35 35 35 35 36 36 36 35 35 35 35 34 34 33 32 31 31 30 29 27 26 24 23 22 23 24 25 26 26 25 23 21 19 17 16 15 14 15 15 16 17 17 18 19 19 20 20 21 22 24 25 26 27 27 27 27 27 28 28 28 28 28 29 30 31 32 32 32 31 30 28 25 24 23 23 24 26 28
32 33 33 34 34 34 34 34 34 34 34 34 34 34 34 34 34 34 34 33 33 32 31 30 29 29 28 27 25 24 23 22 22 23 24 25 24 23 21 18 16 15 14 13 13 13 13 14 15 17 18 19 19 20 20 20 21 22 24 25 26 27 28 28 29 29 30 30 30 30 31 31 32 32 32 32 30 28 26 24 23 23 24 25 27 29
33 33 33 34 34 33 33 33 33 33 33 33 33 33 33 33 33 33 33 32 32 31 30 29 28 27 26 25 24 23 22 21 21 22 23 23 22 20 18 16 14 13 12 12 11 11 12 13 14 16 17 18 19 20 20 20 20 21 21 22 24 25 26 27 28 29 30 30 30 30 30 30 30 30 29 28 26 24 23 22 22 22 24 25 27 28
33 33 33 33 33 33 32 32 32 32 32 32 32 32 32 31 31 32 31 31 31 30 29 28 27 26 25 24 23 22 21 20 20 21 22 22 20 18 16 14 13 12 11 11 11 11 12 13 14 15 16 17 18 19 20 20 20 20 21 21 22 23 24 25 27 28 28 29 29 29 29 28 27 26 25 23 22 20 19 19 20 21 23 25 26 27
32 31 31 31 31 31 32 32 32 32 32 32 31 31 31 30 30 30 30 30 30 29 28 27 26 25 24 23 23 21 20 19 19 19 20 20 18 16 13 12 11 10 10 10 10 11 12 13 14 15 16 17 18 19 19 20 20 21 21 21 21 22 23 24 26 27 27 27 28 28 27 26 24 22 21 20 20 19 18 18 19 20 21 23 24 25
30 30 30 30 30 30 31 31 31 32 32 32 31 31 30 30 29 29 28 28 28 27 26 25 24 23 23 23 22 21 20 18 18 18 18 18 16 14 12 10 9 9 9 10 10 11 12 13 14 15 16 16 17 18 19 20 21 21 22 22 22 21 22 23 24 25 26 26 27 27 26 23 21 20 20 20 20 19 18 18 19 19 20 22 23 24
28 28 29 29 29 30 30 31 31 32 32 32 31 31 30 29 28 28 27 27 26 25 24 23 22 21 21 21 21 21 20 18 17 17 17 16 14 12 10 9 8 8 9 10 11 12 13 14 15 15 16 16 17 19 19 20 21 22 22 23 22 22 22 22 23 24 25 25 26 25 24 22 21 21 21 21 21 20 19 19 19 20 21 22 23 24
27 27 28 28 29 29 30 31 31 31 31 31 31 30 30 29 28 27 26 26 25 24 23 22 20 20 19 19 20 20 19 18 17 16 15 14 13 11 9 8 8 8 9 10 11 12 13 14 15 16 16 17 18 20 21 21 21 22 22 23 23 23 23 23 24 24 24 24 24 24 23 22 22 23 24 23 22 21 19 18 18 19 20 21 23 24
26 27 27 28 29 29 30 30 31 31 31 30 30 30 29 28 28 27 26 25 24 23 21 20 19 18 18 18 18 18 18 17 16 16 15 13 11 10 8 8 8 8 9 10 11 12 13 14 15 16 17 18 20 21 22 22 22 22 22 22 22 23 23 24 24 24 23 23 23 23 23 23 24 25 25 25 23 20 18 17 17 19 20 21 22 23
26 27 27 28 29 29 29 30 30 30 30 30 30 29 29 28 27 26 25 24 23 21 20 19 17 16 16 16 16 17 17 16 16 15 14 13 11 9 8 8 8 8 9 10 11 12 13 14 15 16 17 19 20 21 22 22 22 22 22 21 21 21 22 23 23 23 23 23 23 22 22 23 25 26 26 25 22 19 17 16 17 18 19 21 22 23
25 26 27 28 28 28 28 29 29 29 29 29 29 29 28 27 26 25 24 23 22 20 19 18 17 16 15 15 15 15 15 15 15 15 14 12 11 9 8 8 8 8 9 10 11 12 13 14 15 16 17 19 20 21 21 21 22 22 22 21 20 20 20 21 21 22 22 23 22 22 22 24 25 26 26 24 21 18 16 15 16 18 20 21 22 23
25 26 26 27 27 27 27 27 27 28 28 28 28 28 28 27 26 25 23 22 21 19 18 17 16 15 15 15 14 14 14 13 13 13 13 12 10 9 8 8 8 8 9 10 11 12 13 13 15 16 17 18 19 20 20 20 21 21 21 21 20 20 20 20 20 20 21 22 22 22 22 24 26 26 25 22 19 16 14 14 16 18 20 22 23 23
25 25 25 26 26 26 26 26 26 26 27 27 27 27 27 26 26 24 23 22 20 19 17 15 15 14 14 14 14 13 13 13 13 12 12 11 10 9 8 8 8 8 9 10 11 12 13 13 14 16 17 19 19 20 19 19 20 21 21 21 20 20 20 20 20 20 20 21 21 21 22 25 26 25 23 20 16 14 13 14 16 18 21 23 24 24
24 25 24 24 25 25 25 25 25 25 26 26 26 26 26 26 25 24 23 22 20 18 17 15 14 14 14 14 13 13 13 12 12 12 11 10 9 8 8 7 7 8 9 10 11 12 13 14 15 16 17 18 19 20 19 19 19 20 21 21 20 20 20 20 19 19 20 20 21 21 23 25 26 24 21 18 15 13 12 14 16 19 21 23 25 25
24 24 24 24 24 24 24 24 25 25 25 25 25 25 25 25 24 24 23 22 20 19 17 15 14 13 13 13 13 12 12 12 12 11 10 9 9 8 8 7 7 8 9 10 10 11 12 14 15 17 18 19 20 20 20 20 19 20 20 21 20 20 20 19 18 19 19 20 21 22 23 25 25 23 19 16 14 13 13 14 16 18 21 23 25 25
Wind_Direction
304 304 305 305 305 305 305 305 305 305 304 304 304 303 303 302 302 301 301 300 299 299 298 297 297 297 298 298 298 298 298 298 298 298 299 299 300 300 301 301 301 301 301 300 300 299 299 298 297 297 295 294 292 289 287 283 280 276 273 270 267 264 262 260 258 256 256 255 255 255 256 256 256 256 256 257 257 257 257 257 257 257 257 257 258 258
305 305 306 306 306 306 306 305 305 305 304 304 304 303 303 303 302 301 301 300 299 299 298 298 298 298 299 299 299 299 299 299 299 300 301 302 303 304 304 305 304 304 304 303 303 303 303 303 302 301 300 299 297 295 292 288 284 280 276 273 269 266 263 260 258 257 256 255 255 255 255 255 255 256 256 256 256 257 257 257 257 257 257 257 257 258
306 306 306 306 306 306 306 306 306 305 305 304 304 304 303 303 302 302 301 300 300 299 299 299 299 299 299 299 299 299 300 300 301 302 303 305 306 307 307 307 307 306 307 307 307 307 307 307 307 306 305 304 302 300 298 294 290 286 281 277 272 269 265 262 260 258 257 256 255 255 255 255 255 255 256 256 256 256 257 257 257 257 257 257 257 257
307 307 307 307 307 307 306 306 306 305 305 305 305 304 304 303 303 302 301 300 300 300 299 300 300 299 300 300 300 300 301 302 303 304 306 307 308 308 309 308 308 309 310 310 311 311 312 311 311 310 310 309 307 305 303 300 296 292 287 282 277 273 269 265 263 260 258 257 256 256 256 256 256 256 256 256 256 257 257 257 257 257 257 257 257 257
307 307 307 307 307 307 307 307 306 306 306 305 305 305 304 304 303 302 301 300 300 300 300 300 300 300 300 301 301 301 302 303 304 306 307 309 309 309 309 309 310 311 312 314 314 314 314 314 314 314 314 313 312 310 308 305 301 297 293 288 283 278 274 270 266 263 261 259 258 257 257 257 257 257 257 257 257 257 257 257 258 258 258 257 257 257
308 308 308 308 308 307 307 307 307 306 306 306 305 305 304 303 302 301 301 300 300 300 300 300 300 301 301 302 302 302 303 304 305 307 308 309 310 310 310 310 311 313 314 315 316 316 316 316 316 316 316 316 315 314 312 309 306 302 298 293 288 283 279 274 270 267 265 263 261 260 259 259 258 258 258 258 258 258 258 258 258 257 257 256 256 255
308 308 308 308 308 308 308 307 307 307 307 306 306 305 304 303 302 301 301 300 300 300 300 301 301 302 302 303 302 303 303 304 306 308 309 310 310 310 310 311 312 314 315 315 316 316 316 316 317 317 317 317 317 316 314 312 309 306 302 297 293 288 283 279 275 271 268 266 264 262 261 260 260 259 259 259 258 258 258 257 256 256 255 254 253 252
309 309 309 309 309 309 308 308 308 307 307 306 305 304 303 302 301 301 301 301 301 301 302 302 303 303 303 303 303 303 303 305 307 308 310 310 310 310 310 311 312 314 315 315 315 316 316 316 316 317 317 317 316 315 314 312 310 307 304 300 296 292 287 283 279 275 272 269 267 265 263 262 261 260 260 259 258 257 257 256 255 254 253 252 251 250
309 309 309 309 309 309 309 308 308 308 307 306 305 304 303 302 301 301 301 302 303 303 303 304 304 304 303 303 302 302 303 305 307 309 311 311 310 309 309 310 312 314 315 315 315 315 315 316 316 317 317 317 316 315 314 312 310 308 305 302 298 294 290 286 282 279 275 272 270 268 266 264 263 261 260 259 258 257 256 255 254 252 251 250 250 249
310 310 310 310 309 309 309 309 308 308 307 306 305 304 303 302 302 302 303 304 304 305 305 305 305 305 304 303 302 302 304 306 308 311 311 311 310 309 309 310 312 314 315 315 315 315 315 316 316 317 317 316 316 315 313 312 311 309 306 304 301 298 294 290 286 283 279 276 273 270 268 266 264 262 261 259 258 257 256 255 253 252 251 250 249 248
310 310 310 310 310 310 309 309 308 307 307 306 305 304 304 304 304 305 305 306 306 306 306 306 306 305 304 303 302 302 304 307 309 312 312 311 310 309 309 311 313 314 315 315 315 315 315 316 317 317 317 316 315 314 313 312 310 309 307 305 303 301 298 294 290 287 283 279 276 273 270 267 265 264 262 260 259 258 256 255 254 253 251 250 249 248
310 310 310 310 310 310 310 309 308 307 306 306 305 305 305 306 307 308 308 308 308 308 307 307 306 305 304 303 303 303 305 308 311 313 313 311 309 308 309 310 313 314 315 315 315 315 316 317 317 317 317 315 314 313 311 310 309 307 306 305 304 302 300 297 293 290 286 282 279 276 273 271 269 267 265 263 261 260 258 256 255 253 252 251 250 248
310 310 311 311 310 310 309 309 308 307 307 306 306 307 307 308 309 310 310 310 309 309 308 308 307 306 305 304 304 305 306 309 312 314 314 312 310 308 309 310 312 314 315 315 315 315 316 317 317 317 316 315 314 312 311 309 307 305 304 303 302 301 300 298 296 293 290 287 284 281 278 275 273 271 269 267 265 263 261 259 257 255 253 252 251 249
311 311 311 311 311 310 309 309 308 308 307 307 308 308 309 310 311 311 311 311 311 310 310 310 309 308 307 306 305 306 307 310 313 315 315 313 310 309 309 310 312 314 314 315 315 315 315 316 316 316 315 314 313 312 311 309 307 304 302 300 299 298 298 298 297 296 294 291 289 285 282 280 277 274 272 270 268 265 263 261 259 257 255 254 252 251
311 311 311 311 311 310 310 309 308 308 308 308 309 310 311 312 312 312 312 312 312 311 311 311 311 310 309 307 306 306 308 310 313 315 316 314 311 309 308 310 312 313 314 314 314 314 314 314 314 314 313 312 312 311 311 310 308 305 302 299 297 296 296 296 297 297 297 295 292 289 286 283 280 278 275 273 271 268 266 264 261 259 257 256 254 253
312 312 311 311 310 310 309 309 308 308 308 309 310 311 313 313 314 314 314 314 313 313 313 312 311 310 309 307 306 306 307 309 312 315 317 316 313 309 308 309 311 313 313 313 313 313 313 313 312 312 311 311 310 311 311 310 309 307 304 300 297 295 294 295 296 297 297 296 294 292 289 287 284 281 279 276 273 271 268 266 263 261 259 257 255 254
312 311 311 311 310 309 309 309 308 308 309 310 312 313 314 315 315 315 315 315 315 315 315 314 313 311 309 306 305 305 305 308 311 315 318 317 314 310 307 308 310 311 312 312 311 311 311 311 310 310 309 309 310 310 311 311 311 309 306 301 298 295 294 295 296 297 297 296 294 292 290 288 286 284 281 279 276 273 270 267 265 262 259 257 255 254
312 311 311 310 309 309 308 308 309 309 310 311 313 314 315 316 317 317 317 316 317 317 317 316 314 312 310 308 306 304 305 307 310 315 318 318 314 309 307 307 309 310 311 311 310 310 310 309 309 309 309 309 310 312 313 313 313 311 308 303 299 296 295 295 296 296 296 294 293 290 288 287 285 284 283 281 279 277 274 271 267 264 261 259 256 254
311 311 310 309 308 308 308 309 309 310 311 313 314 315 317 317 318 318 318 318 318 319 319 318 316 314 312 310 308 306 305 307 310 314 318 317 313 308 305 306 307 309 310 310 309 309 309 309 309 309 309 311 313 315 316 317 316 314 310 305 301 298 297 297 297 296 294 292 289 286 284 283 283 284 284 284 283 282 279 276 273 269 266 263 260 257
311 310 309 308 308 308 309 310 311 312 313 314 315 316 318 318 319 319 319 319 320 321 320 319 318 315 313 311 309 306 305 307 310 314 317 316 312 307 304 305 307 309 309 310 309 309 309 309 309 310 311 314 317 319 320 320 319 316 312 308 304 301 299 298 297 295 291 287 283 280 279 279 282 285 286 287 287 286 284 281 278 275 272 269 266 263
310 309 309 308 308 309 310 311 312 313 314 315 316 317 318 319 319 319 320 320 321 322 322 321 319 316 313 311 309 307 306 307 310 313 315 314 311 307 305 306 307 309 310 310 310 310 310 310 310 312 315 318 320 322 323 322 320 318 314 310 306 304 302 299 296 291 285 279 275 273 273 276 280 283 285 286 286 285 283 281 279 277 274 272 269 267
310 309 309 309 309 310 311 312 313 314 315 315 316 317 318 319 319 320 320 321 323 324 324 323 320 316 313 311 309 307 306 307 310 313 314 314 312 309 307 307 309 311 313 313 312 311 311 312 313 316 319 322 323 324 324 323 321 318 315 311 308 306 303 299 293 286 278 272 268 267 269 273 277 279 281 282 281 281 280 279 277 276 275 273 272 270
310 309 309 310 310 311 312 313 314 315 315 315 316 317 318 319 320 320 322 323 324 325 325 323 320 317 313 311 309 307 307 308 310 313 314 316 314 312 310 310 313 315 316 315 314 313 313 314 317 319 322 324 325 325 324 322 320 317 314 312 310 307 304 298 290 282 274 268 266 268 271 274 277 279 280 280 280 279 279 278 277 276 275 274 272 271
309 309 310 310 311 312 313 314 314 315 315 315 315 316 317 319 320 321 323 324 325 326 325 324 321 318 314 312 310 308 308 308 311 314 317 319 319 317 315 314 316 318 319 317 315 315 316 317 319 321 323 324 325 324 322 320 317 315 314 314 313 311 307 300 291 282 276 273 273 276 279 281 282 282 282 282 281 281 281 280 279 278 276 275 273 271
310 310 310 311 312 313 314 314 315 315 315 315 315 316 317 318 320 322 324 324 325 326 326 325 323 321 317 315 313 311 310 311 313 317 321 323 323 321 318 317 319 321 321 318 316 316 318 320 321 322 322 323 323 322 319 315 313 312 314 316 318 317 313 306 297 289 285 284 286 287 288 288 287 287 286 285 284 283 282 281 280 278 277 275 273 272
310 311 312 312 313 314 314 315 315 315 315 315 315 316 317 318 320 322 323 324 325 325 325 325 325 324 322 320 318 315 314 315 318 321 324 326 325 322 319 319 320 322 322 319 318 318 319 321 321 321 321 321 321 319 315 311 310 311 315 319 322 323 320 314 307 300 296 295 294 294 293 292 291 290 288 287 285 284 282 281 280 279 277 276 274 272
312 312 313 313 314 314 315 315 315 315 315 315 315 316 318 319 321 322 323 323 323 324 325 325 326 327 327 325 323 320 319 319 322 324 326 327 325 323 320 320 321 322 322 320 319 319 321 322 322 321 320 320 319 316 312 309 307 309 313 318 322 324 322 318 312 306 302 300 298 296 295 294 292 291 290 288 287 286 284 283 282 280 279 277 275 273
313 313 313 314 314 314 315 315 314 314 314 315 315 317 318 320 321 322 323 323 323 323 324 326 327 329 330 330 328 325 323 323 324 326 326 326 325 322 320 321 322 323 323 322 321 321 322 322 322 321 320 318 317 314 310 306 304 305 308 312 315 317 317 314 311 309 306 303 300 298 296 295 293 293 292 292 291 291 290 289 287 284 282 280 277 275
313 313 313 314 314 314 314 314 314 314 314 315 316 317 318 320 321 322 322 322 322 322 324 326 328 330 331 332 331 329 326 325 325 325 326 326 324 322 321 322 323 324 324 324 323 323 324 324 324 323 321 318 315 312 309 306 304 303 304 306 308 309 310 311 310 309 307 305 303 301 299 298 297 297 299 300 301 302 301 299 296 292 288 285 282 278
313 313 313 313 313 314 313 314 314 314 315 315 315 316 317 319 319 320 320 320 320 321 323 325 327 329 331 332 332 330 327 326 325 324 324 324 323 322 322 323 324 324 325 325 325 326 326 326 327 326 324 321 317 313 311 309 308 307 307 307 308 308 309 310 309 309 308 307 307 306 305 305 306 308 310 311 312 311 310 308 305 301 297 292 288 284
312 312 312 312 313 313 313 313 313 314 314 314 315 315 316 316 317 317 317 317 318 319 321 324 326 328 330 331 331 330 328 326 324 323 323 324 323 323 323 324 325 326 327 328 329 330 330 330 330 330 329 327 323 318 314 312 312 312 313 313 313 313 312 311 311 312 313 314 315 315 316 317 318 318 318 317 315 314 312 310 308 305 302 299 295 290
312 312 312 312 312 312 312 312 313 313 313 313 313 313 313 313 314 314 314 315 316 318 319 321 323 325 328 329 330 330 328 327 324 322 322 323 324 325 326 327 327 328 329 331 333 334 335 335 334 334 334 334 331 327 323 320 318 318 318 319 319 318 318 318 320 321 324 325 326 327 327 326 325 324 322 319 317 314 312 309 308 307 307 305 303 300
312 312 311 311 311 312 312 312 312 312 312 312 312 311 311 311 311 311 312 312 314 315 317 319 320 323 325 327 329 329 328 326 324 322 322 324 325 327 328 330 330 331 332 334 336 338 340 341 341 341 341 342 343 342 339 335 333 332 331 330 328 328 328 329 331 333 333 333 332 331 329 327 326 324 322 319 317 314 312 309 308 308 309 308 308 307
312 312 311 311 311 311 311 311 311 311 311 310 310 310 310 310 310 310 310 311 312 313 315 316 318 320 322 324 327 328 328 326 324 322 322 325 327 329 331 332 334 334 335 337 339 342 346 349 350 350 350 351 354 356 356 354 351 349 346 343 340 339 337 337 336 335 334 332 330 328 327 325 323 321 319 317 316 314 311 308 306 305 306 306 306 306
312 311 311 311 311 311 311 310 310 310 310 309 309 309 309 309 308 309 309 309 310 311 312 314 315 317 319 322 324 326 327 326 323 322 323 326 329 332 334 335 337 338 339 341 345 348 352 357 0 2 0 359 359 1 1 359 357 354 351 348 346 343 341 339 337 334 333 331 329 327 326 324 322 320 318 316 315 313 311 307 304 302 303 304 306 306
311 311 310 310 310 310 310 309 309 309 308 308 308 308 308 308 308 308 308 308 309 310 310 311 312 314 316 319 322 324 326 325 323 322 324 327 331 334 336 338 339 341 343 347 352 355 358 2 6 8 8 5 2 0 359 357 355 353 351 350 348 346 345 343 340 338 336 334 332 330 328 326 324 322 320 318 316 314 310 305 301 300 301 305 307 307
310 310 309 309 309 309 309 308 308 308 307 307 307 307 308 308 308 308 308 308 308 308 309 309 310 311 313 316 319 322 325 325 324 323 325 329 333 335 337 340 342 345 348 353 358 2 4 4 6 7 7 5 3 360 358 356 355 354 353 352 350 349 347 345 343 340 338 337 335 333 331 329 327 324 322 319 317 314 310 304 300 298 300 304 306 306
310 309 309 309 309 309 308 308 308 308 307 307 307 308 308 308 308 308 308 307 307 307 307 307 307 308 309 312 316 320 323 324 324 324 326 331 334 336 338 341 344 347 350 356 1 5 6 4 4 4 3 1 359 357 356 356 356 356 356 354 351 349 346 344 341 339 337 336 335 333 331 329 327 324 321 319 317 314 310 305 300 298 299 302 303 303
310 309 309 309 309 309 309 309 309 309 308 308 308 309 309 309 309 309 308 307 306 306 306 305 305 305 306 309 312 316 321 323 323 325 327 331 334 336 338 341 345 348 350 355 360 3 3 1 0 360 360 358 356 355 355 355 355 356 356 354 352 348 344 342 339 338 336 335 334 333 331 329 326 324 322 322 320 317 313 308 302 300 300 301 302 303
310 310 310 310 310 310 311 311 311 311 310 310 310 311 311 311 310 310 309 307 307 306 305 304 303 303 304 306 309 314 318 321 322 324 327 331 333 335 337 340 343 346 348 351 355 357 357 355 355 356 357 356 355 354 353 353 353 354 355 355 353 350 346 343 341 339 337 336 335 335 334 332 330 329 329 330 329 326 321 315 309 306 305 306 307 309
310 310 311 311 312 312 313 313 313 313 313 313 313 313 313 312 311 310 309 308 307 305 304 303 302 302 303 304 307 311 316 319 321 323 326 329 331 332 333 336 339 341 343 345 348 350 350 349 350 352 354 354 353 352 350 350 350 352 354 355 355 353 350 347 344 342 340 339 339 338 338 338 339 340 341 341 340 337 332 326 321 317 316 317 318 318
311 312 312 313 314 315 315 315 316 316 316 316 316 315 315 314 313 311 310 308 307 305 303 302 301 300 301 303 305 309 314 317 320 322 325 327 328 328 328 330 333 335 336 337 340 342 343 344 346 349 352 353 352 351 349 349 350 352 354 356 357 356 353 350 346 344 343 342 342 342 343 345 347 349 349 348 346 342 339 335 332 330 329 328 327 325
313 314 315 316 317 317 318 318 318 318 318 318 318 317 317 316 315 313 311 309 307 305 303 301 299 298 298 300 303 306 311 314 318 320 322 324 324 322 321 322 325 328 330 332 335 337 339 342 345 349 352 353 353 351 350 350 351 353 355 357 357 356 354 350 348 346 345 345 345 345 346 347 349 349 348 347 344 343 341 340 338 337 336 334 331 329
316 317 318 319 320 320 321 320 320 320 320 320 320 319 319 318 317 316 314 311 309 306 304 301 298 296 296 297 300 303 307 311 314 317 319 321 319 316 313 314 316 320 324 328 332 335 339 342 346 350 353 355 354 353 351 351 352 354 356 357 357 355 352 350 348 347 347 347 347 347 347 347 347 346 345 344 343 343 344 344 344 342 340 337 335 334
319 320 321 322 322 323 323 323 323 323 323 323 322 322 322 321 320 319 317 314 311 308 305 301 298 295 294 295 297 301 304 307 311 314 316 317 314 309 306 306 309 313 319 326 332 337 341 345 349 353 355 355 354 352 350 350 352 355 357 358 357 355 351 348 347 347 348 349 349 349 348 347 346 345 344 344 346 348 350 351 349 346 343 342 342 341
322 322 323 324 324 324 325 325 325 325 325 325 324 324 324 323 322 321 319 317 314 310 306 302 298 294 292 293 295 297 300 303 306 309 313 314 311 305 299 298 302 308 316 325 334 340 345 349 353 355 355 354 351 349 348 349 351 355 357 358 357 353 350 347 346 347 349 351 351 351 349 347 345 344 344 346 349 354 357 356 353 350 350 350 350 350
324 324 324 325 326 326 327 327 328 328 327 327 326 326 325 325 324 323 320 318 315 312 308 303 298 294 291 291 292 294 295 297 300 304 308 310 308 303 295 293 296 305 316 326 335 342 348 353 356 357 355 352 349 347 347 349 352 355 357 357 355 351 347 345 347 349 351 352 353 352 350 346 344 344 345 349 354 360 2 360 357 356 358 359 359 357
324 325 325 326 327 328 328 329 329 329 329 328 328 327 327 326 325 324 322 319 317 313 309 304 298 294 292 291 292 292 292 292 294 298 302 305 304 299 293 290 293 301 314 326 335 343 349 354 357 357 355 352 350 348 349 352 355 356 356 355 353 349 345 346 349 353 355 355 354 353 349 346 345 346 348 353 360 6 7 4 2 4 7 7 7 5
325 326 326 327 328 329 329 330 330 330 330 330 329 329 329 328 327 326 324 321 318 314 309 303 298 294 292 292 292 292 291 290 291 293 298 301 300 295 289 286 288 297 308 320 331 339 347 353 356 357 356 354 352 352 353 356 358 358 357 354 351 348 346 349 353 358 359 358 356 352 349 348 348 351 355 1 8 13 12 8 9 12 14 15 15 13
326 326 327 328 328 329 330 330 330 331 331 331 331 331 330 330 329 327 326 323 320 316 311 305 298 293 291 291 292 292 290 289 288 291 295 298 297 291 283 281 283 290 299 310 322 333 342 348 353 357 358 358 357 356 357 359 1 360 357 354 350 348 348 352 358 2 1 359 356 353 351 351 353 357 3 9 15 17 14 12 15 19 21 22 21 20
326 327 328 328 329 330 330 330 331 331 331 331 332 332 332 331 330 329 327 325 323 319 315 308 301 295 291 290 290 290 288 286 285 288 293 296 295 288 279 274 275 282 291 301 314 327 337 344 349 354 359 1 0 359 359 1 2 1 358 354 350 348 350 356 1 3 2 360 358 356 356 356 358 2 9 16 20 20 17 17 21 25 28 28 27 26